When you browse on this site, cookies collect data to enhance your experience and personalize the content and advertising you see.
Visit our Privacy Policy to learn more. By continuing to use the site, you agree to this use of cookies and data.
  • In Denmark
  • List of Countries
  • For 7 days
  • Water Temperature
  • Satellite Maps
  • Weather Map
  • Weather Widgets
  • user-avatar
    Login

    Hourly Weather Preston

    Today, 17 June, Monday

    Time Temperature Precipitation Wind Pressure Humidity
    00:00 +13°C° 0.1 mm 6 mps 756 mmHg 90%
    01:00 +11°C° 0.5 mm 6 mps 756 mmHg 91%
    02:00 +12°C° 0.5 mm 5 mps 756 mmHg 91%
    03:00 +12°C° 0.5 mm 5 mps 756 mmHg 92%
    04:00 +12°C° 0.3 mm 5 mps 756 mmHg 92%
    05:00 +12°C° 0.3 mm 5 mps 756 mmHg 92%
    06:00 +12°C° 0.3 mm 4 mps 756 mmHg 93%
    07:00 +13°C° 0.2 mm 5 mps 757 mmHg 88%
    08:00 +14°C° 0.2 mm 5 mps 757 mmHg 84%
    09:00 +15°C° 0.2 mm 6 mps 757 mmHg 80%
    10:00 +16°C° 0.1 mm 6 mps 757 mmHg 77%
    11:00 +16°C° 0.1 mm 6 mps 757 mmHg 74%
    12:00 +17°C° 0.1 mm 6 mps 757 mmHg 71%
    13:00 +17°C° 0.1 mm 6 mps 756 mmHg 70%
    14:00 +17°C° 0.1 mm 6 mps 756 mmHg 69%
    15:00 +17°C° 0.1 mm 6 mps 756 mmHg 69%
    16:00 +16°C° 0 mm 6 mps 756 mmHg 70%
    17:00 +16°C° 0 mm 6 mps 756 mmHg 71%
    18:00 +16°C° 0 mm 6 mps 756 mmHg 73%
    19:00 +14°C° 0 mm 5 mps 757 mmHg 76%
    20:00 +13°C° 0 mm 4 mps 757 mmHg 78%
    21:00 +12°C° 0 mm 4 mps 757 mmHg 81%
    22:00 +11°C° 0 mm 4 mps 757 mmHg 82%
    23:00 +11°C° 0 mm 4 mps 757 mmHg 82%

    Tomorrow, 18 June, Tuesday

    Time Temperature Precipitation Wind Pressure Humidity
    00:00 +10°C° 0 mm 4 mps 757 mmHg 83%
    01:00 +10°C° 0 mm 3 mps 757 mmHg 85%
    02:00 +10°C° 0 mm 3 mps 757 mmHg 86%
    03:00 +10°C° 0 mm 3 mps 757 mmHg 88%
    04:00 +11°C° 0 mm 3 mps 757 mmHg 87%
    05:00 +11°C° 0 mm 3 mps 757 mmHg 86%
    06:00 +12°C° 0 mm 3 mps 757 mmHg 86%
    07:00 +13°C° 0 mm 3 mps 757 mmHg 82%
    08:00 +14°C° 0 mm 4 mps 757 mmHg 78%
    09:00 +15°C° 0 mm 4 mps 757 mmHg 74%
    10:00 +17°C° 0 mm 4 mps 757 mmHg 72%
    11:00 +17°C° 0 mm 4 mps 757 mmHg 70%
    12:00 +18°C° 0 mm 4 mps 757 mmHg 69%
    13:00 +17°C° 0 mm 3 mps 757 mmHg 70%
    14:00 +17°C° 0 mm 3 mps 756 mmHg 71%
    15:00 +17°C° 0 mm 3 mps 756 mmHg 71%
    16:00 +17°C° 0 mm 2 mps 756 mmHg 73%
    17:00 +16°C° 0 mm 2 mps 756 mmHg 74%
    18:00 +16°C° 0 mm 1 mps 756 mmHg 75%
    19:00 +15°C° 0 mm 1 mps 756 mmHg 75%
    20:00 +15°C° 0 mm 1 mps 756 mmHg 75%
    21:00 +13°C° 0 mm 0 mps 756 mmHg 75%
    22:00 +13°C° 0 mm 0 mps 756 mmHg 75%
    23:00 +13°C° 0 mm 0 mps 755 mmHg 75%

    Day after tomorrow, 19 June, Wednesday

    Time Temperature Precipitation Wind Pressure Humidity
    00:00 +13°C° 0 mm 0 mps 755 mmHg 76%
    01:00 +13°C° 0.1 mm 1 mps 755 mmHg 77%
    02:00 +13°C° 0.1 mm 1 mps 754 mmHg 79%
    03:00 +13°C° 0.1 mm 1 mps 754 mmHg 81%
    04:00 +13°C° 0.1 mm 1 mps 754 mmHg 82%
    05:00 +13°C° 0.1 mm 1 mps 753 mmHg 83%
    06:00 +13°C° 0.1 mm 1 mps 753 mmHg 84%
    07:00 +13°C° 0.1 mm 1 mps 753 mmHg 84%
    08:00 +14°C° 0.1 mm 1 mps 753 mmHg 85%
    09:00 +14°C° 0.1 mm 1 mps 753 mmHg 85%
    10:00 +14°C° 0.3 mm 1 mps 752 mmHg 87%
    11:00 +13°C° 0.3 mm 2 mps 752 mmHg 89%
    12:00 +13°C° 0.3 mm 2 mps 752 mmHg 91%
    13:00 +13°C° 0.1 mm 2 mps 752 mmHg 90%
    14:00 +13°C° 0.1 mm 2 mps 752 mmHg 88%
    15:00 +14°C° 0.1 mm 2 mps 752 mmHg 87%
    16:00 +13°C° 0 mm 3 mps 752 mmHg 85%
    17:00 +14°C° 0 mm 3 mps 752 mmHg 83%
    18:00 +14°C° 0 mm 4 mps 752 mmHg 80%
    19:00 +13°C° 0 mm 4 mps 753 mmHg 83%
    20:00 +12°C° 0 mm 3 mps 753 mmHg 86%
    21:00 +11°C° 0 mm 3 mps 753 mmHg 90%
    22:00 +11°C° 0 mm 3 mps 753 mmHg 90%
    23:00 +11°C° 0 mm 3 mps 753 mmHg 91%

    20 June, Thursday

    Time Temperature Precipitation Wind Pressure Humidity
    00:00 +11°C° 0 mm 3 mps 753 mmHg 92%
    01:00 +10°C° 0 mm 3 mps 753 mmHg 92%
    02:00 +10°C° 0 mm 4 mps 753 mmHg 92%
    03:00 +10°C° 0 mm 4 mps 753 mmHg 92%
    04:00 +11°C° 0 mm 4 mps 753 mmHg 90%
    05:00 +11°C° 0 mm 4 mps 754 mmHg 89%
    06:00 +11°C° 0 mm 4 mps 754 mmHg 87%
    07:00 +12°C° 0.1 mm 5 mps 754 mmHg 84%
    08:00 +13°C° 0.1 mm 6 mps 754 mmHg 80%
    09:00 +14°C° 0.1 mm 6 mps 754 mmHg 76%
    10:00 +14°C° 0.2 mm 6 mps 754 mmHg 74%
    11:00 +14°C° 0.2 mm 6 mps 754 mmHg 73%
    12:00 +15°C° 0.2 mm 6 mps 754 mmHg 71%
    13:00 +15°C° 0.1 mm 6 mps 754 mmHg 69%
    14:00 +15°C° 0.1 mm 6 mps 754 mmHg 66%
    15:00 +15°C° 0.1 mm 6 mps 754 mmHg 64%
    16:00 +15°C° 0.1 mm 5 mps 754 mmHg 67%
    17:00 +15°C° 0.1 mm 5 mps 754 mmHg 71%
    18:00 +14°C° 0.1 mm 4 mps 754 mmHg 74%
    19:00 +13°C° 0.1 mm 4 mps 754 mmHg 78%
    20:00 +12°C° 0.1 mm 4 mps 755 mmHg 81%
    21:00 +11°C° 0.1 mm 4 mps 755 mmHg 85%
    22:00 +11°C° 0.1 mm 4 mps 755 mmHg 86%
    23:00 +10°C° 0.1 mm 4 mps 755 mmHg 87%

    21 June, Friday

    Time Temperature Precipitation Wind Pressure Humidity
    00:00 +10°C° 0.1 mm 4 mps 756 mmHg 88%
    01:00 +10°C° 0.1 mm 3 mps 756 mmHg 89%
    02:00 +10°C° 0.1 mm 3 mps 756 mmHg 91%
    03:00 +10°C° 0.1 mm 3 mps 756 mmHg 92%
    04:00 +10°C° 0.1 mm 3 mps 756 mmHg 91%
    05:00 +11°C° 0.1 mm 3 mps 756 mmHg 89%
    06:00 +11°C° 0.1 mm 3 mps 757 mmHg 88%
    07:00 +12°C° 0.2 mm 4 mps 757 mmHg 85%
    08:00 +12°C° 0.2 mm 5 mps 757 mmHg 81%
    09:00 +13°C° 0.2 mm 5 mps 758 mmHg 78%
    10:00 +13°C° 0.1 mm 6 mps 758 mmHg 75%
    11:00 +14°C° 0.1 mm 6 mps 758 mmHg 73%
    12:00 +14°C° 0.1 mm 6 mps 758 mmHg 70%
    13:00 +14°C° 0 mm 6 mps 758 mmHg 70%
    14:00 +14°C° 0 mm 6 mps 758 mmHg 71%
    15:00 +14°C° 0 mm 5 mps 759 mmHg 71%
    16:00 +14°C° 0 mm 5 mps 759 mmHg 72%
    17:00 +13°C° 0 mm 4 mps 759 mmHg 72%
    18:00 +13°C° 0 mm 3 mps 759 mmHg 73%
    19:00 +12°C° 0 mm 3 mps 760 mmHg 77%
    20:00 +12°C° 0 mm 2 mps 760 mmHg 81%
    21:00 +9°C° 0 mm 2 mps 761 mmHg 86%
    22:00 +10°C° 0 mm 1 mps 761 mmHg 86%
    23:00 +10°C° 0 mm 1 mps 761 mmHg 87%

    22 June, Saturday

    Time Temperature Precipitation Wind Pressure Humidity
    00:00 +8°C° 0 mm 0 mps 761 mmHg 88%
    01:00 +8°C° 0 mm 0 mps 761 mmHg 88%
    02:00 +9°C° 0 mm 1 mps 761 mmHg 89%
    03:00 +9°C° 0 mm 1 mps 761 mmHg 89%
    04:00 +9°C° 0 mm 1 mps 762 mmHg 87%
    05:00 +10°C° 0 mm 1 mps 762 mmHg 85%
    06:00 +11°C° 0 mm 1 mps 762 mmHg 83%
    07:00 +13°C° 0 mm 1 mps 762 mmHg 77%
    08:00 +14°C° 0 mm 1 mps 762 mmHg 71%
    09:00 +15°C° 0 mm 1 mps 762 mmHg 66%
    10:00 +16°C° 0 mm 1 mps 762 mmHg 62%
    11:00 +17°C° 0 mm 2 mps 762 mmHg 59%
    12:00 +18°C° 0 mm 2 mps 762 mmHg 55%
    13:00 +18°C° 0 mm 2 mps 761 mmHg 56%
    14:00 +19°C° 0 mm 2 mps 761 mmHg 56%
    15:00 +19°C° 0 mm 3 mps 761 mmHg 56%
    16:00 +19°C° 0 mm 3 mps 761 mmHg 60%
    17:00 +19°C° 0 mm 3 mps 761 mmHg 65%
    18:00 +18°C° 0 mm 3 mps 760 mmHg 69%
    19:00 +17°C° 0.1 mm 3 mps 761 mmHg 73%
    20:00 +14°C° 0.1 mm 4 mps 761 mmHg 78%
    21:00 +12°C° 0.1 mm 4 mps 761 mmHg 82%
    22:00 +12°C° 0 mm 4 mps 761 mmHg 83%
    23:00 +11°C° 0 mm 3 mps 761 mmHg 83%
    Show more